Tracking 19219 objects as of 19-Jul-2018
HD Live streaming from Space Station
objects crossing your sky now

FENGYUN 1C DEB

Track FENGYUN 1C DEB now!
10-day predictions


NORAD ID: 33689
Int'l Code: 1999-025DGA
Perigee: 757.8 km
Apogee: 840.5 km
Inclination: 99.6 °
Period: 100.7 minutes
Semi major axis: 7170 km
RCS: 0.0143 m2 (small)
Launch date: May 10, 1999
Source: People's Republic of China (PRC)
Launch site: Taiyaun Space Center, China (TSC)

Note: This is SATELLITE DEBRIS
aabbcc
Your satellite tracking list
Your tracking list is empty




NASA's NSSDC Master Catalog

Two Line Element Set (TLE):
1 33689U 99025DGA 18200.37661088  .00000155  00000-0  79025-4 0  9992
2 33689  99.5512 253.4214 0057710 354.0344  66.7761 14.29920042536354
Source of the keplerian elements: AFSPC